Location: Newark
(34.0635°N, 86.7609°W)
Time: 15:58:17
(UTC+00:00)

N. Korean satellite - Pass Details

Date: 18 December 2019
Orbit: 454 x 508 km, 97.2° (Epoch: 17 January)

Event Time Altitude Azimuth Distance (km) Brightness Sun altitude
Rises 11:03:44 0° 23° (NNE) 2,494 10.3 -20.7°
Reaches altitude 10° 11:05:57 10° 34° (NE) 1,608 9.4 -20.3°
Maximum altitude 11:09:02 30° 97° (E) 840 8.4 -19.6°
Drops below altitude 10° 11:12:04 10° 161° (SSE) 1,584 9.6 -19.0°
Sets 11:14:14 0° 172° (S) 2,451 10.5 -18.6°
